Location: Lachepaillet
(43.4918°N, 1.4874°W)
Time: 03:39:15
(UTC+00:00)

Cosmos 2360 Rocket - Pass Details

Date: 15 May 2026
Orbit: 831 x 845 km, 71.0° (Epoch: 8 June)

Event Time Altitude Azimuth Distance (km) Brightness Sun altitude
Rises 20:02:02 0° 345° (NNW) 3,414 6.2 -6.8°
Reaches altitude 10° 20:05:29 10° 6° (N) 2,475 5.0 -7.3°
Maximum altitude 20:09:00 17° 45° (NE) 2,046 4.1 -7.8°
Drops below altitude 10° 20:12:31 10° 84° (E) 2,467 4.2 -8.3°
Enters shadow 20:14:03 - 95° (E) 2,848 4.4 -8.5°
